Location: Tr�vern
(48.0333°N, 4.6000°W)
Time: 08:41:32
(UTC+00:00)

Landsat 4 - Pass Details

Date: 14 July 2020
Orbit: 506 x 522 km, 98.2° (Epoch: 05 August)

Event Time Altitude Azimuth Distance (km) Brightness Sun altitude
Rises 00:04:38 0° 20° (NNE) 2,659 8.5 -20.2°
Reaches altitude 10° 00:06:50 10° 28° (NNE) 1,767 7.2 -20.2°
Maximum altitude 00:10:26 39° 99° (E) 790 4.4 -20.3°
Enters shadow 00:10:40 39° 109° (ESE) 797 4.4 -20.3°
